METAR AND TAF INFORMATION


GMTT 211600Z 31007KT 270V330 9000 FEW016 BKN100 19/11 Q1007 NOSIG
GMTT 211530Z 31007KT 270V350 9000 FEW016 BKN100 19/11 Q1007 NOSIG
TAF GMTT 211100Z 2112/2218 28012KT 8000 SCT013 BKN016 PROB30 2112/2203 4000 RA PROB40 2203/2218 4000 RA

 AIRPORT MAP

 RUNWAY INFORMATION
Runway 07 Runway length 6562 ft Runway width 98 ft
Runway elevation 0 ft Runway displaced threshold 0 ft Runway heading 69
Runway 25 Runway length 6562 ft Runway width 98 ft
Runway elevation 0 ft Runway displaced threshold 0 ft Runway heading 249
Runway 10 Runway length 11483 ft Runway width 148 ft
Runway elevation 20 ft Runway displaced threshold 0 ft Runway heading 96
Runway 28 Runway length 11483 ft Runway width 148 ft
Runway elevation 62 ft Runway displaced threshold 1640 ft Runway heading 276

 AIRPORT FREQUENCIES
Type APP Name TANGER APP Frequency 121.2 MHZ
Type TWR Name TANGER TWR Frequency 119.5 MHZ

 AIRPORT NEAR NAVIGATION AIDS
Type VOR-DME Name Tanger Frequency 115900 KHZ